Regional Weather Roundup
Issued by NWS

Home | Current Version | Previous Version | Text Only | Print | Product List | Glossary Off
Versions: 1 2 3 4 5 6 7 8 9 10 11 12 13 14 15 16 17 18 19 20 21 22 23 24 25 26 27 28 29 30 31 32 33 34 35 36 37 38 39 40 41 42 43 44 45 46 47 48 49 50

000
ASUS43 KIND 061859
RWRIN

WEATHER ROUNDUP FOR INDIANA
NATIONAL WEATHER SERVICE INDIANAPOLIS IN
300 PM EDT WED MAY 06 2015

NOTE: "FAIR" INDICATES FEW OR NO CLOUDS BELOW 12,000 FEET WITH NO
SIGNIFICANT WEATHER AND/OR OBSTRUCTIONS TO VISIBILITY.

* - STATION DOES NOT REPORT WEATHER SUCH AS PRECIPITATION OR FOG.

+ - STATION NOT QUALITY CONTROLLED BY THE NATIONAL WEATHER SERVICE.
    USE DATA WITH CAUTION...ESPECIALLY DEWPOINT AND RELATIVE
    HUMIDITY OBSERVATIONS.

INZ001>003-010>013-019-020-062000-
NORTHWEST INDIANA

CITY           SKY/WX    TMP DP  RH WIND       PRES   REMARKS
GARY /AIRPORT/ MOSUNNY   72 N/A N/A SE5       30.14F HAZE

$$

LMZ046-743>745-062000-
SOUTHERN LAKE MICHIGAN

STATION/POSITION TIME  TEMP    WIND        PRES    WAVE
                       AIR SEA DIR/SP/G            HT
                 (UTC) (F)     (DEG/KT/KT) (MB)    (FT)
BURNS HARBOR     1800   58      80/  8/  9 1021.3F
MICHIGAN CITY    1800   56      20/  7/  7   N/A
5NW MICH CITY    1800   53 54   30/  6/ 10   N/A     1

$$

INZ004-005-014>016-021>024-062000-
NORTH CENTRAL INDIANA

CITY           SKY/WX    TMP DP  RH WIND       PRES   REMARKS
GOSHEN         SUNNY     76  61  59 CALM      30.17F
SOUTH BEND     SUNNY     79  61  53 SE6       30.16F

$$

INZ006>009-017-018-025>027-062000-
NORTHEAST INDIANA

CITY           SKY/WX    TMP DP  RH WIND       PRES   REMARKS
ANGOLA *+      SUNNY     70  63  78 S5        30.19F
FORT WAYNE     MOSUNNY   78  60  53 CALM      30.18F

$$

INZ028-029-035-036-043>045-051>053-062000-
WEST CENTRAL INDIANA

CITY           SKY/WX    TMP DP  RH WIND       PRES   REMARKS
GREENCASTLE +  MOSUNNY   81  46  30 S3        30.15F
LAFAYETTE      PTSUNNY   82  49  31 CALM      30.13F
TERRE HAUTE    MOSUNNY   84  54  35 S12G18    30.14F

$$

INZ030>032-037>040-046>048-054>057-064-065-062000-
CENTRAL INDIANA

CITY           SKY/WX    TMP DP  RH WIND       PRES   REMARKS
ANDERSON       MOSUNNY   81  41  24 CALM      30.18F
COLUMBUS       MOSUNNY   81  50  34 SW5       30.16F
GREENWOOD *+   MOSUNNY   84  45  24 S3        30.17F
INDIANAPOLIS   PTSUNNY   80  53  39 S7        30.15F
-EAGLE CREEK   MOSUNNY   83  53  35 S6        30.15F
KOKOMO *+      MOSUNNY   84  57  39 SW7       30.15F
MT COMFORT *+  MOSUNNY   86  27  11 W8        30.17S
SHELBYVILLE    CLOUDY    85  54  34 S8        30.16F

$$

INZ033-034-041-042-049-050-058-059-062000-
EAST CENTRAL INDIANA

CITY           SKY/WX    TMP DP  RH WIND       PRES   REMARKS
MUNCIE         MOSUNNY   82  53  36 CALM      30.17F

$$

INZ060-061-067>069-081>083-085>088-062000-
SOUTHWEST INDIANA

CITY           SKY/WX    TMP DP  RH WIND       PRES   REMARKS
EVANSVILLE     MOSUNNY   85  54  34 S8        30.14F
HUNTINGBURG *+ MOSUNNY   82  55  39 S6        30.14F

$$

INZ062-063-066-070>080-084-089>092-062000-
SOUTH CENTRAL AND SOUTHEAST INDIANA

CITY           SKY/WX    TMP DP  RH WIND       PRES   REMARKS
BLOOMINGTON    MOSUNNY   83  51  33 SE6       30.16F
MADISON *+     PTSUNNY   82  46  28 W3        30.18F
SEYMOUR +      PTSUNNY   84  55  37 CALM      30.15F

$$



USA.gov is the U.S. government's official web portal to all federal, state and local government web resources and services.